Flag for Comoros Weather past 2 weeks in Mutsamudu, Comoros

Now
81 °F

Passing clouds.


Feels Like: 83 °F
Forecast: 67 / 78 °F
Wind: No wind

Location: Dzaoudzi / Pamanzi Mayotte

Current Time: Jul 30, 2015 at 5:53:48 PM

Latest Report: Jul 30, 2015 at 5:30 PM


Visibility: N/A

Pressure: 29.98 "Hg

Humidity: 66%

Dew point: 68 °F

Location of MutsamuduLocation

Historic Weather in Mutsamudu — Graph

°F

Mutsamudu temperature yesterday

Maximum temperature yesterday: 84 °F (at 10:30 AM)
Minimum temperature yesterday: 73 °F (at 3:00 AM)
Average temperature yesterday: 79 °F

Past Weeks' High & Low Weather Summary

 TemperatureHumidityPressure
High84 °F (Jul 18, 10:30 AM)94% (Jul 19, 2:00 AM)32.96 "Hg (Jul 19, 2:00 AM)
Low70 °F (Jul 19, 12:30 AM)54% (Jul 18, 4:30 PM)29.98 "Hg (Jul 16, 2:30 PM)
Average78 °F72%30.04 "Hg
* Reported Jul 15 5:00 PM — Jul 30 5:00 PM, Mutsamudu, Weather by CustomWeather, © 2015

Note: Actual official high and low records may vary slightly from our data, if they occured in-between our weather recording intervals... More about our weather records

Advertising

Mutsamudu weather history for previous 24 hours

 ConditionsComfort  
Time TempWeatherWind HumidityBarometerVisibility
5:00 PM
Thu, Jul 30
81 °FPassing clouds.3 mph62%29.98 "HgN/A
4:30 PM81 °FPassing clouds.3 mph66%29.98 "HgN/A
4:00 PM81 °FPassing clouds.3 mph66%29.98 "HgN/A
3:30 PM82 °FPassing clouds.5 mph58%29.98 "HgN/A
3:05 PM82 °FPassing clouds.5 mph58%29.98 "HgN/A
2:30 PM82 °FPassing clouds.6 mph58%29.98 "HgN/A
2:00 PM82 °FPassing clouds.7 mph58%30.01 "HgN/A
1:30 PM82 °FPassing clouds.6 mph62%30.01 "HgN/A
1:00 PM82 °FPassing clouds.7 mph62%30.01 "HgN/A
12:30 PM82 °FPassing clouds.6 mph62%30.04 "HgN/A
12:00 PM84 °FPassing clouds.6 mph58%30.04 "HgN/A
11:35 AM82 °FPassing clouds.6 mph62%30.04 "HgN/A
11:00 AM82 °FPassing clouds.8 mph62%30.07 "HgN/A
10:30 AM82 °FScattered clouds.7 mph62%30.07 "HgN/A
10:00 AM82 °FScattered clouds.7 mph66%30.07 "HgN/A
9:36 AM82 °FBroken clouds.7 mph66%30.07 "HgN/A
9:00 AM79 °FBroken clouds.7 mph74%30.07 "HgN/A
8:30 AM79 °FBroken clouds.6 mph79%30.07 "HgN/A
8:00 AM77 °FScattered clouds.5 mph83%30.07 "HgN/A
7:30 AM77 °FScattered clouds.5 mph83%30.04 "HgN/A
6:36 AM77 °FScattered clouds.10 mph83%30.04 "HgN/A
6:00 AM75 °FPassing clouds.8 mph83%30.01 "HgN/A
5:30 AM75 °FPassing clouds.8 mph83%30.01 "HgN/A
5:00 AM75 °FPassing clouds.7 mph83%30.01 "HgN/A
4:30 AM75 °FPassing clouds.6 mph89%30.01 "HgN/A
4:00 AM75 °FPassing clouds.6 mph83%29.98 "HgN/A
3:30 AM75 °FPartly cloudy.3 mph89%29.98 "HgN/A
3:00 AM75 °FPassing clouds.5 mph89%29.98 "HgN/A
2:30 AM77 °FWarm.6 mph79%29.98 "HgN/A
2:00 AM77 °FWarm.5 mph83%30.01 "HgN/A
1:30 AM77 °FWarm.6 mph83%30.01 "HgN/A
1:00 AM77 °FWarm.5 mph83%30.01 "HgN/A
12:30 AM75 °FMild.3 mph83%30.04 "HgN/A
12:00 AM75 °FOvercast.3 mph89%30.04 "HgN/A
11:30 PM
Wed, Jul 29
75 °FPartly cloudy.1 mph83%30.04 "HgN/A
11:00 PM75 °FPartly cloudy.No wind83%30.04 "HgN/A
10:30 PM75 °FPassing clouds.1 mph83%30.04 "HgN/A
10:00 PM77 °FPassing clouds.2 mph83%30.04 "HgN/A
9:30 PM75 °FPassing clouds.No wind83%30.04 "HgN/A
9:00 PM75 °FPassing clouds.No wind83%30.04 "HgN/A
8:30 PM75 °FPassing clouds.No wind78%30.04 "HgN/A
8:00 PM75 °FPassing clouds.No wind83%30.01 "HgN/A
7:30 PM77 °FWarm.1 mph79%30.01 "HgN/A
7:00 PM77 °FWarm.2 mph79%30.01 "HgN/A
6:30 PM77 °FPassing clouds.3 mph79%30.01 "HgN/A
6:00 PM79 °FPassing clouds.3 mph74%30.01 "HgN/A
5:30 PM79 °FPassing clouds.3 mph74%29.98 "HgN/A
5:00 PM81 °FScattered clouds.5 mph70%29.98 "HgN/A
Weather by CustomWeather, © 2015

See weather overviewHow to use our weather pages